IRIDIUM 170

Last updated on Tue Sep 22 2026 00:03:21 GMT+0000 (Coordinated Universal Time)

1 43930U 19002J 26264.40744072 .00000399 00000+0 59423-4 0 9996 2 43930 86.6090 313.3293 0002450 92.7426 267.4072 14.72253128413411
UTC large
Height (km)
Speed (km/s)
/
Latitude / Longitude
Inclination (degrees)
Orbital Period (minutes)
Azimuth
Elevation
Range (km)
Doppler Factor

Next 0 passes for location: London (51.5072 / 0.1276)

No passes found over London.
IRIDIUM 170